EHI
0 0 0 0 0 0 0 0 0 0 0 0 0 0 0 0 0 0 0 0 0 0 0 0 0 0 0 0 0 0 0 0 0 0 0 0 0 0 0 0 0 0 0 0
0 0 0 0 0 0 0 0 0 0 0 0 0 0 0 0 0 0 0 0 0 0 0 0 0 0 0 0 0 0 0 0 0 0 0 0 0 0 0 0 0 0 0 0
0 0 0 0 0 0 0 0 0 0 0 0 0 0 0 0 0 0 0 0 0 0 0 0 0 0 0 0 0 0 0 0 0 0 0 0 0 0 0 0 0 0 0 0
0 0 0 0 0 0 0 0 0 0 0 0 0 0 0 0 0 0 0 0 0 0 0 0 0 0 0 0 0 0 0 0 0 0 0 0 0 0 0 0 0 0 0 0
0 0 0 0 0 0 0 0 0 0 0 0 0 0 0 0 0 0 0 0 0 0 0 0 0 0 0 0 0 0 0 0 0 0 0 0 0 0 0 0 0 0 0 0
0 0 0 0 0 0 0 0 0 0 0 0 0 0 0 0 0 0 0 0 0 0 0 0 0 0 0 0 0 0 0 0 0 0 0 0 0 0 0 0 0 0 0 0
0 0 0 0 0 0 0 0 0 0 0 0 0 0 0 0 0 0 0 0 0 0 0 0 0 0 0 0 0 0 0 0 0 0 0 0 0 0 0 0 0 0 0 0
0 0 0 0 0 0 0 0 0 0 0 0 0 0 0 0 0 0 0 0 0 0 0 0 0 0 0 0 0 0 0 0 0 0 0 0 0 0 0 0 0 0 0 0
0 0 0 0 0 0 0 0 0 0 0 0 0 0 0 0 0 0 0 0 0 0 0 0 0 0 0 0 0 0 0 0 0 0 0 0 0 0 0 0 0 0 0 0
0 0 0 0 0 0 0 0 0 0 0 0 0 0 0 0 0 0 0 0 0 0 0 0 0 0 0 0 0 0 0 0 0 0 0 0 0 0 0 0 0 0 0 0
0 0 0 0 0 0 0 0 0 0 0 0 0 0 0 0 0 0 0 0 0 0 0 0 0 0 0 0 0 0 0 0 0 0 0 0 0 0 0 0 0 0 0 0
0 0 0 0 0 0 0 0 0 0 0 0 0 0 0 0 0 0 0 0 0 0 0 0 0 0 0 0 0 0 0 0 0 0 0 0 0 0 0 0 0 0 0 0
0 0 0 0 0 0 0 0 0 0 0 0 0 0 0 0 0 0 0 0 0 0 0 0 0 0 0 0 0 0 0 0 0 0 0 0 0 0 0 0 0 0 0 0
0 0 0 0 0 0 0 0 0 0 0 0 0 0 0 0 0 0 0 0 0 0 0 0 0 0 0 0 0 0 0 0 0 0 0 0 0 0 0 0 0 0 0 0
0 0 0 0 0 0 0 0 0 0 0 0 0 0 0 0 0 0 0 0 0 0 0 0 0 0 0 0 0 0 0 0 0 0 0 0 0 0 0 0 0 0 0 0
0 0 0 0 0 0 0 0 0 0 0 0 0 0 0 0 0 0 0 0 0 0 0 0 0 0 0 0 0 0 0 0 0 0 0 0 0 0 0 0 0 0 0 0
0 0 0 0 0 0 0 0 0 0 0 0 0 0 0 0 0 0 0 0 0 0 0 0 0 0 0 0 0 0 0 0 0 0 0 0 0 0 0 0 0 0 0 0
0 0 0 0 0 0 0 0 0 0 0 0 0 0 0 0 0 0 0 0 0 0 0 0 0 0 0 0 0 0 0 0 0 0 0 0 0 0 0 0 0 0 0 0
0 0 0 0 0 0 0 0 0 0 0 0 0 0 0 0 0 0 0 0 0 0 0 0 0 0 0 0 0 0 0 0 0 0 0 0 0 0 0 0 0 0 0 0
0 0 0 0 0 0 0 0 0 0 0 0 0 0 0 0 0 0 0 0 0 0 0 0 0 0 0 0 0 0 0 0 0 0 0 0 0 0 0 0 0 0 0 0
0 0 0 0 0 0 0 0 0 0 0 0 0 0 0 0 0 0 0 0 0 0 0 0 0 0 0 0 0 0 0 0 0 0 0 0 0 0 0 0 0 0 0 0
0 0 0 0 0 0 0 0 0 0 0 0 0 0 0 0 0 0 0 0 0 0 0 0 0 0 0 0 0 0 0 0 0 0 0 0 0 0 0 0 0 0 0 0
0 0 0 0 0 0 0 0 0 0 0 0 0 0 0 0 0 0 0 0 0 0 0 0 0 0 0 0 0 0 0 0 0 0 0 0 0 0 0 0 0 0 0 0
0 0 0 0 0 0 0 0 0 0 0 0 0 0 0 0 0 0 0 0 0 0 0 0 0 0 0 0 0 0 0 0 0 0 0 0 0 0 0 0 0 0 0 0
0 0 0 0 0 0 0 0 0 0 0 0 0 0 0 0 0 0 0 0 0 0 0 0 0 0 0 0 0 0 0 0 0 0 0 0 0 0 0 0 0 0 0 0
0 0 0 0 0 0 0 0 0 0 0 0 0 0 0 0 0 0 0 0 0 0 0 0 0 0 0 0 0 0 0 0 0 0 0 0 0 0 0 0 0 0 0 0
0 0 0 0 0 0 0 0 0 0 0 0 0 0 0 0 0 0 0 0 0 0 0 0 0 0 0 0 0 0 0 0 0 0 0 0 0 0 0 0 0 0 0 0
Wind_Speed
10 8 8 11 13 15 16 14 12 12 13 12 8 6 4 3 3 3 3 4 4 4 4 4 4 4 4 4 4 4 4 4 4 3 3 3 3 3 4 4 5 5 5 5
8 8 9 11 15 18 18 16 15 14 14 7 4 4 4 4 4 4 3 4 4 4 4 4 4 4 4 4 4 4 4 4 3 3 3 3 3 3 4 4 4 4 5 5
7 6 6 13 14 16 14 13 13 15 11 5 6 7 7 6 5 4 4 3 4 4 3 3 3 4 4 4 3 4 4 3 3 3 3 4 4 4 4 4 4 5 5 6
4 6 12 5 3 8 10 10 9 6 5 6 5 4 4 4 4 3 3 3 3 3 3 2 2 3 3 3 4 4 4 3 3 3 4 4 4 5 5 4 5 5 5 6
5 7 8 5 3 5 7 7 6 7 5 3 2 1 3 3 2 2 2 2 2 2 2 2 3 3 3 3 4 4 4 3 3 4 4 4 4 5 5 4 5 5 5 6
5 6 7 2 2 3 5 6 4 6 6 5 5 4 3 2 1 1 0 1 2 2 2 2 2 3 3 3 3 4 3 3 3 4 4 5 5 4 4 4 5 5 5 6
6 6 6 2 2 3 7 3 3 5 6 6 5 2 2 2 1 1 1 2 2 3 2 2 2 3 3 3 3 3 2 3 3 4 4 4 4 4 4 4 5 5 6 6
5 6 5 2 1 3 1 2 3 3 3 3 3 4 3 2 2 2 2 2 2 2 2 1 1 2 2 2 2 2 2 3 3 3 3 3 4 4 4 4 5 5 5 6
2 2 4 2 1 2 1 1 2 2 3 5 5 3 3 2 1 2 2 2 2 2 1 1 0 1 2 2 1 1 2 3 3 3 3 4 4 4 4 4 5 5 5 5
1 1 3 4 3 3 3 3 3 3 4 4 4 3 2 2 1 1 2 1 1 1 1 1 1 1 2 2 1 2 3 3 3 3 4 4 3 4 4 4 5 5 5 5
1 1 3 4 3 4 5 5 5 4 3 3 4 2 2 1 1 1 1 1 1 1 0 1 2 2 2 2 2 3 3 4 4 4 4 4 4 4 5 6 6 6 6 5
1 2 1 2 3 3 4 4 4 4 4 3 3 2 1 1 1 1 1 1 1 1 1 2 2 3 3 2 2 3 3 4 3 3 3 4 4 4 5 7 8 9 10 9
2 2 2 2 3 4 4 4 4 4 3 3 2 1 1 1 1 1 1 1 1 2 2 3 3 3 3 3 3 4 4 4 3 4 4 4 4 4 5 5 7 9 10 10
2 2 3 3 3 4 4 4 4 4 3 2 2 2 1 1 1 1 2 2 2 2 3 3 4 4 4 3 3 4 4 4 4 4 4 4 4 5 5 5 5 5 6 9
3 3 2 2 3 3 3 3 3 3 3 3 2 2 2 1 2 2 3 3 3 3 3 4 4 5 4 4 4 4 4 3 3 4 4 4 4 4 4 5 5 5 5 5
3 3 3 4 3 3 3 2 2 2 2 3 3 3 2 2 3 3 3 3 3 4 4 5 5 5 4 4 4 4 4 5 5 4 4 4 4 4 4 5 5 5 5 5
3 3 3 3 3 3 3 2 2 2 2 3 3 3 3 3 3 4 4 4 4 5 5 5 5 5 4 4 4 4 4 4 5 4 4 4 4 5 5 5 5 5 5 6
2 2 1 1 1 2 3 3 3 3 3 3 3 3 3 3 4 5 5 5 5 5 5 4 5 5 5 5 4 4 4 4 4 4 4 4 5 5 5 5 6 7 6 6
3 3 3 2 2 2 2 3 3 3 3 3 3 3 4 4 4 5 5 5 5 6 5 4 6 5 5 5 5 4 4 4 4 4 4 6 6 5 5 5 6 6 6 5
3 3 3 3 3 3 3 3 3 4 3 3 3 4 4 5 5 5 5 5 4 5 5 6 6 5 5 5 5 4 4 5 5 4 4 5 5 5 5 6 6 6 6 5
4 4 4 3 4 4 3 4 3 4 4 4 4 5 5 6 5 5 5 5 4 4 5 7 5 5 5 5 6 4 4 4 5 5 5 5 5 6 6 6 6 6 5 5
5 4 5 4 4 4 4 4 4 4 5 4 4 5 5 6 5 5 5 5 5 7 6 4 4 6 6 7 4 4 4 5 4 4 5 5 5 5 6 6 6 5 5 5
5 5 5 5 5 5 5 4 4 4 5 5 5 5 5 5 4 4 5 4 5 7 6 5 6 8 8 5 4 4 5 5 5 5 5 5 5 5 5 6 5 5 5 5
5 5 5 5 4 4 5 5 5 4 5 5 4 5 5 4 4 3 4 7 8 8 5 6 9 9 7 4 4 4 4 4 4 5 5 5 5 5 5 5 5 5 5 6
6 5 5 5 4 4 5 5 5 5 4 4 4 4 3 3 4 4 5 6 7 7 5 6 8 8 5 4 4 4 4 4 4 4 4 4 4 5 5 5 5 5 5 5
5 5 4 4 4 4 3 3 4 4 4 4 4 3 3 3 4 4 4 5 6 7 5 4 4 5 4 3 4 4 4 4 4 4 4 4 5 5 4 5 6 5 5 5
5 4 3 3 3 3 3 3 4 4 4 4 5 4 4 4 4 4 5 4 4 4 4 4 4 4 4 4 4 4 4 3 3 4 4 4 4 4 4 5 4 4 4 4
Wind_Direction
259 261 222 226 221 212 217 226 231 238 238 237 232 229 217 192 172 167 173 171 167 169 166 163 164 167 169 168 165 167 172 180 187 188 188 192 195 200 204 209 212 214 218 223
253 247 237 243 235 225 226 230 239 248 253 252 237 209 214 209 193 193 198 194 182 179 178 175 175 175 175 175 169 172 179 187 188 190 195 201 204 205 209 216 219 217 221 225
245 241 247 245 232 220 219 222 225 234 239 205 211 209 214 208 201 209 210 209 196 192 191 190 185 179 177 173 167 175 183 187 191 195 204 210 209 212 217 221 225 228 230 232
237 223 231 239 245 224 220 225 226 236 224 208 215 225 226 205 194 205 212 210 199 193 185 182 175 171 166 163 172 182 189 195 199 203 210 213 213 219 224 224 226 230 232 235
218 233 254 259 238 208 212 227 225 221 215 207 166 187 210 187 192 209 226 213 188 184 176 171 169 162 162 171 181 192 200 204 208 212 218 221 225 229 230 229 232 236 237 236
214 227 239 254 279 245 207 227 215 207 201 193 178 211 202 147 152 161 135 136 137 138 148 157 156 160 172 184 193 207 215 220 219 220 224 229 234 238 238 234 236 239 242 242
225 235 258 316 304 190 206 234 180 197 196 198 210 218 139 137 123 103 105 113 117 121 130 141 150 166 181 199 216 225 231 232 233 230 231 234 238 238 236 236 238 242 246 248
222 226 245 10 154 205 298 55 146 162 175 172 134 115 118 113 107 94 101 104 114 115 103 97 141 171 194 224 235 231 235 239 242 244 242 236 234 239 238 237 240 245 249 253
222 252 4 1 326 345 27 83 105 130 130 126 123 126 122 113 102 91 98 100 106 108 87 64 96 194 222 260 264 246 248 253 256 255 248 242 239 239 242 240 241 245 246 252
231 322 4 6 13 39 54 60 66 85 104 117 118 118 107 96 96 90 86 90 94 92 73 16 7 323 290 303 290 257 258 265 263 256 254 250 247 240 239 241 244 248 250 253
281 330 19 17 25 53 64 69 75 75 73 95 103 97 99 99 95 86 73 72 84 84 4 330 338 327 314 306 287 268 266 263 259 255 253 254 254 254 252 251 249 252 254 254
276 317 1 344 13 52 65 60 64 70 61 57 69 78 83 76 59 53 36 31 28 355 334 325 324 317 315 303 276 264 265 264 261 257 258 260 264 271 261 253 260 260 262 261
315 15 42 18 23 38 51 49 50 57 59 48 37 47 60 45 32 19 357 347 323 312 309 309 308 305 302 293 275 263 265 269 265 259 258 260 262 266 276 272 256 257 259 262
25 64 49 20 22 31 46 50 51 46 38 29 20 16 27 24 1 331 316 313 307 299 297 298 298 298 300 292 278 269 269 268 267 265 263 262 263 263 264 269 276 275 265 262
29 43 63 39 32 31 39 51 49 36 28 15 8 360 1 349 329 321 321 319 312 300 297 298 297 301 308 294 280 276 275 272 272 272 268 265 264 261 262 264 267 273 277 270
36 53 60 54 42 35 39 40 34 7 4 359 353 348 344 332 323 321 318 311 302 297 298 296 294 299 305 296 286 281 277 275 276 275 271 267 264 263 263 262 264 266 266 268
54 44 42 30 19 13 10 6 359 351 347 341 338 340 341 333 325 321 319 315 302 293 291 288 292 300 297 289 285 283 283 280 275 271 266 266 266 264 263 262 263 266 266 264
25 8 8 9 356 353 353 352 347 339 329 323 327 326 322 316 309 310 313 313 306 298 292 292 298 300 294 286 281 280 280 279 275 271 270 267 267 266 265 264 266 269 272 268
20 16 8 2 355 346 333 329 327 325 321 318 311 305 303 300 301 305 308 306 300 299 304 307 305 298 290 287 287 276 273 274 274 271 269 270 270 266 265 265 267 269 271 268
5 1 357 348 341 329 318 315 313 309 308 306 298 297 298 300 302 302 300 291 286 291 299 302 301 294 289 285 284 272 270 271 272 274 274 271 270 270 268 268 269 270 268 266
340 337 333 327 321 316 310 305 301 300 303 300 292 291 294 298 300 296 292 292 299 303 299 298 294 291 288 287 285 275 272 272 273 272 272 272 272 272 272 272 271 269 269 268
328 323 317 313 308 306 308 304 295 293 294 294 292 292 292 295 296 290 277 279 297 306 305 294 291 292 297 297 285 281 278 276 274 273 272 272 273 274 275 276 276 276 274 273
314 311 308 305 302 300 301 299 295 291 291 292 292 290 288 288 290 290 294 300 302 306 304 293 297 301 304 298 287 282 279 277 275 274 273 274 274 275 276 277 277 277 277 277
307 306 304 304 302 297 297 303 303 294 290 287 285 287 289 292 290 281 287 301 308 309 303 300 304 305 306 295 286 281 278 276 277 277 277 276 275 275 275 276 277 278 278 280
301 299 298 299 294 290 294 304 306 302 299 296 301 301 294 288 289 301 304 304 309 312 306 304 309 310 306 293 288 285 282 278 280 281 278 279 279 279 277 278 279 280 280 280
300 297 293 291 289 293 299 301 301 303 306 306 308 309 306 299 294 296 299 302 304 307 306 303 303 305 299 293 289 288 287 289 290 287 285 284 282 281 279 279 282 281 280 281
303 302 300 301 301 297 295 292 292 296 298 298 300 305 307 305 302 304 304 302 304 305 304 302 301 300 298 296 294 292 290 289 288 287 286 285 284 284 285 282 282 282 282 282